Flag for Pakistan Weather past 2 weeks in Karachi, Sindh, Pakistan

Now
63 °F

Passing clouds.


Feels Like: 63 °F
Forecast: 60 / 72 °F
Wind: 21 mph from Northeast

Location: Karachi Airport

Current Time: Mar 1, 2015 at 2:31:43 AM

Latest Report: Mar 1, 2015 at 1:55 AM


Visibility: 4 mi

Pressure: 29.77 "Hg

Humidity: 45%

Dew point: 41 °F

Location of KarachiLocation

Historic Weather in Karachi — Graph

°F

Karachi temperature yesterday

Maximum temperature yesterday: 72 °F (at 2:55 PM)
Minimum temperature yesterday: 61 °F (at 1:55 AM)
Average temperature yesterday: 66 °F

Past Weeks' High & Low Weather Summary

 TemperatureHumidityPressure
High91 °F (Feb 21, 3:55 PM)94% (Feb 17, 11:55 PM)30.07 "Hg (Feb 17, 11:55 PM)
Low57 °F (Feb 27, 3:55 AM)11% (Feb 25, 2:55 PM)29.74 "Hg (Feb 28, 3:25 PM)
Average74 °F55%29.89 "Hg
* Reported Feb 14 12:25 AM — Mar 1 12:55 AM, Karachi, Weather by CustomWeather, © 2015

Note: Actual official high and low records may vary slightly from our data, if they occured in-between our weather recording intervals... More about our weather records

Advertising

Karachi weather history for previous 24 hours

 ConditionsComfort  
Time TempWeatherWind HumidityBarometerVisibility
12:55 AM
Sun, Mar 1
63 °FPartly cloudy.32 mph49%29.80 "HgN/A
12:25 AM63 °FThundershowers. Partly cloudy.28 mph49%29.83 "Hg3 mi
11:55 PM
Sat, Feb 28
63 °FThundershowers. Partly cloudy.23 mph49%29.83 "Hg3 mi
11:25 PM63 °FPartly cloudy.23 mph49%29.83 "Hg3 mi
10:55 PM63 °FPartly cloudy.29 mph56%29.83 "Hg3 mi
10:25 PM63 °FPartly cloudy.18 mph56%29.83 "Hg3 mi
9:55 PM63 °FPartly cloudy.21 mph56%29.83 "Hg3 mi
9:25 PM64 °FPartly cloudy.18 mph56%29.83 "Hg3 mi
8:55 PM64 °FPartly cloudy.18 mph56%29.83 "Hg4 mi
8:25 PM64 °FPartly cloudy.17 mph56%29.83 "Hg4 mi
7:55 PM66 °FDrizzle. Mostly cloudy.18 mph52%29.80 "Hg3 mi
7:25 PM68 °FDrizzle. Mostly cloudy.22 mph49%29.80 "Hg2 mi
6:55 PM68 °FDrizzle. Mostly cloudy.21 mph40%29.77 "Hg2 mi
6:25 PM70 °FMore clouds than sun.18 mph43%29.77 "Hg4 mi
5:55 PM72 °FBroken clouds.17 mph44%29.77 "Hg4 mi
5:25 PM72 °FBroken clouds.18 mph41%29.74 "Hg4 mi
5:00 PMN/A12 mphN/AN/AN/A
4:25 PM72 °FPartly sunny.17 mph38%29.74 "Hg4 mi
3:55 PM72 °FPartly sunny.16 mph38%29.74 "Hg4 mi
3:25 PM72 °FPartly sunny.17 mph38%29.74 "Hg4 mi
2:55 PM72 °FScattered clouds.22 mph38%29.77 "Hg4 mi
2:25 PM68 °FPassing clouds.18 mph46%29.80 "Hg4 mi
1:55 PM68 °FScattered clouds.17 mph49%29.83 "Hg4 mi
1:25 PM68 °FBroken clouds.17 mph49%29.83 "Hg4 mi
12:55 PM68 °FDrizzle. Broken clouds.9 mph49%29.83 "Hg3 mi
12:25 PM68 °FDrizzle. Mostly cloudy.No wind49%29.89 "Hg3 mi
11:55 AM70 °FMostly cloudy.7 mph38%29.89 "Hg3 mi
11:25 AM68 °FDrizzle. Mostly cloudy.6 mph43%29.92 "Hg3 mi
10:55 AM66 °FDrizzle. Mostly cloudy.7 mph46%29.92 "Hg3 mi
10:25 AM64 °FDrizzle. More clouds than sun.7 mph49%29.92 "Hg3 mi
9:55 AM64 °FDrizzle. More clouds than sun.7 mph49%29.92 "Hg3 mi
9:25 AM64 °FDrizzle. Mostly cloudy.10 mph49%29.92 "Hg3 mi
8:55 AM64 °FDrizzle. Mostly cloudy.7 mph49%29.92 "Hg3 mi
8:25 AM63 °FMostly cloudy.12 mph52%29.89 "Hg4 mi
7:55 AM63 °FMostly cloudy.7 mph52%29.89 "Hg4 mi
7:25 AM63 °FMostly cloudy.7 mph52%29.86 "Hg4 mi
6:55 AM63 °FMostly cloudy.12 mph52%29.83 "Hg3 mi
6:25 AM63 °FMostly cloudy.10 mph52%29.83 "Hg3 mi
5:55 AM63 °FMostly cloudy.10 mph52%29.83 "Hg3 mi
4:25 AM61 °FThunderstorms. Mostly cloudy.13 mph68%29.83 "Hg3 mi
3:25 AM61 °FThunderstorms. Mostly cloudy.16 mph68%29.86 "Hg3 mi
2:55 AM61 °FThunderstorms. Mostly cloudy.9 mph68%29.89 "Hg3 mi
2:25 AM61 °FDrizzle. Mostly cloudy.3 mph68%29.89 "Hg3 mi
Weather by CustomWeather, © 2015

See weather overviewHow to use our weather pages